Overview Statistics Trail Chart Weather Telemetry Raw packets
 

This is the latest recevied weather packets stored in our database for station/object PY2WOA-13. If no packets are shown the sender has not sent any weather packets the latest 10 day(s).

<< 9 10 11 12 13 14 15 >>
Time Temp. Humidity Pressure Rain* Wind** Luminosity Snow
1788188704 31.67° C 54% 1008.3 hPa - - - -
1788186904 31.11° C 57% 1008.9 hPa - - - -
1788185103 30° C 60% 1009.6 hPa - - - -
1788183303 28.33° C 65% 1009.8 hPa - - - -
1788181504 26.67° C 70% 1010.4 hPa - - - -
1788179704 26.11° C 75% 1010.7 hPa - - - -
1788177904 24.44° C 83% 1010.8 hPa - - - -
1788176104 23.89° C 86% 1010.5 hPa - - - -
1788174304 22.22° C 95% 1010.8 hPa - - - -
1788172504 22.22° C 96% 1010.9 hPa - - - -
1788170703 21.11° C 98% 1011 hPa - - - -
1788168903 20.56° C 98% 1011.3 hPa - - - -
1788167104 21.11° C 98% 1011.1 hPa - - - -
1788165304 21.11° C 100% 1011.4 hPa - - - -
1788163504 21.11° C 100% 1011.1 hPa - - - -
1788161704 21.11° C 100% 1011.4 hPa - - - -
1788159904 20.56° C 100% 1011.8 hPa - - - -
1788158103 20.56° C 100% 1012.4 hPa - - - -
1788156304 21.11° C 100% 1012.3 hPa - - - -
1788154504 21.11° C 100% 1012.5 hPa - - - -
1788152704 21.11° C 100% 1012.3 hPa - - - -
1788150904 21.11° C 100% 1012.8 hPa - - - -
1788149104 21.11° C 100% 1012.9 hPa - - - -
1788147303 21.11° C 100% 1013.6 hPa - - - -
1788145503 21.67° C 98% 1011.7 hPa - - - -

* Rain since midnight (hover to see other rain measurements)
** Current wind speed in m/s (hover to see current wind gust speed)